Content
SEND FEEDBACK

Daily
Averages
Monthly
Summary
United States of America

ST. LOUIS, MISSOURI


Home > North America > United States > Missouri
Elevation: 535 feet     Latitude: 38 45N     Longitude: 090 22W

WEATHER
 
SELECT A DAY
Number of Records: 196,446;   Date Range: 1/1/95 - 8/12/14
 
SHARE

PRINT THIS DATA

[ ← Previous Day ]
WEATHER ALMANAC - OCTOBER 18, 2013
[ Next Day → ]
[ °C ]   °F
Weather ElementAverageHighLow
Temperature51 °F61 °F (3:54 pm)42.1 °F (4:54 am)
Dewpoint38.8 °F43 °F (9:54 am)33.1 °F (3:54 pm)
Humidity66.2 %92 % (4:54 am)35 % (3:54 pm)
Barometer30.02 in30.08 in (9:54 am)29.96 in (1:54 am)
Wind Speed8.1 mph12.7 mph (3:54 pm)
Weather ElementAverage
Visibility9.9 mi
Wind DirectionWNW (293.9 °)

Weather ElementTotal
Precipitation0.05 in
Heating Degree Days13.5 (Base 65)
Growing Degree Days1.6 (Base 50)
Averaged from 23 records on October 18, 2013
WEATHER CONDITIONS BREAKOUT
WIND DIRECTION BREAKOUT
WEATHER BY HOUR - OCTOBER 18, 2013
[ °C ]   °F
Local TimeTemperatureDewpointHumidityBarometerVisibilityWind DirectionWind SpeedGust SpeedPrecipitationEventsConditions
1:54 AM46.9 °F41.0 °F80 %29.96 in10.0 miWest (260°)8.1 mphClear
2:54 AM48.9 °F41.0 °F74 %29.96 in10.0 miWSW (250°)8.1 mphPartly Cloudy
3:54 AM46.0 °F41.0 °F83 %29.96 in10.0 miWest (260°)6.9 mphClear
4:54 AM42.1 °F39.9 °F92 %29.98 in10.0 miWSW (250°)6.9 mphClear
5:54 AM45.0 °F41.0 °F86 %30.00 in10.0 miWest (260°)4.6 mphClear
6:54 AM42.1 °F39.9 °F92 %30.02 in10.0 miWest (260°)4.6 mphClear
7:54 AM43.0 °F39.9 °F89 %30.05 in10.0 miWSW (250°)4.6 mphClear
8:54 AM48.0 °F42.1 °F80 %30.06 in10.0 miWNW (290°)8.1 mphClear
9:54 AM52.0 °F43.0 °F71 %30.08 in10.0 miWNW (290°)8.1 mphPartly Cloudy
10:54 AM55.0 °F42.1 °F62 %30.07 in10.0 miWNW (290°)5.8 mphScattered Clouds
11:54 AM57.9 °F42.1 °F56 %30.06 in10.0 miNNW (330°)10.4 mphScattered Clouds
12:54 PM57.9 °F39.9 °F51 %30.04 in10.0 miWNW (290°)9.2 mphScattered Clouds
1:54 PM60.1 °F39.0 °F46 %30.01 in10.0 miWest (280°)10.4 mphScattered Clouds
2:54 PM60.1 °F37.0 °F42 %29.99 in10.0 miNW (320°)10.4 mphScattered Clouds
3:54 PM61.0 °F33.1 °F35 %29.99 in10.0 miNNW (340°)12.7 mphScattered Clouds
4:54 PM57.9 °F33.1 °F39 %30.00 in10.0 miNW (310°)10.4 mphMostly Cloudy
5:54 PM55.0 °F34.0 °F45 %30.02 in10.0 miNW (320°)10.4 mphClear
6:54 PM53.1 °F35.1 °F50 %30.02 in10.0 miWNW (300°)3.5 mphMostly Cloudy
7:54 PM52.0 °F35.1 °F53 %30.05 in10.0 miNW (320°)5.8 mphOvercast
8:54 PM52.0 °F34.0 °F50 %30.02 in10.0 miNNW (340°)10.4 mphOvercast
9:54 PM48.0 °F39.0 °F71 %30.04 in10.0 miNW (320°)9.2 mph0.00 inRainLight Rain
10:54 PM45.0 °F41.0 °F86 %30.03 in10.0 miNW (310°)9.2 mph0.01 inRainLight Rain
11:54 PM43.0 °F39.9 °F89 %30.02 in7.0 miNW (320°)8.1 mph0.04 inRainLight Rain
Hourly data recorded from KSUS, located miles away from St. Louis, Missouri







STORIES FROM OUR PARTNERS